Weather Roundup
Issued by NWS

Home | Current Version | Previous Version | Graphics & Text | Print | Product List | Glossary Off
Versions: 1 2 3 4 5 6 7 8 9 10 11 12 13 14 15 16 17 18 19 20 21 22 23 24 25 26 27 28 29 30 31 32 33 34 35 36 37 38 39 40 41 42 43 44 45 46 47 48 49 50

000
NZUS93 KARX 300710
HRRWXR

CURRENT HOURLY OBSERVATIONS ACROSS
MUCH OF THE UPPER MISSISSIPPI VALLEY
NATIONAL WEATHER SERVICE LA CROSSE WI
200 AM CDT SAT APR 30 2016


...SOUTHEAST MINNESOTA...


CITY           SKY/WX    TMP DP  RH WIND       PRES   REMARKS
ROCHESTER      CLOUDY    41  38  89 NE6       30.09F
ROCHESTER/MAYO FAIR      45  39  81 CALM      30.09F
WINONA         CLOUDY    41  37  87 CALM      30.12S
AUSTIN         CLOUDY    41  37  87 NE5       30.07F
ALBERT LEA     CLOUDY    43  39  87 NE5       30.07F
DODGE CENTER   CLOUDY    39  37  93 NE6       30.08F WCI  35
PRESTON        CLOUDY    40  37  89 NE5       30.08F
OWATONNA       CLOUDY    43  37  81 NE6       30.08F
FARIBAULT      CLOUDY    39  37  93 N3        30.11F
$$

...ELSEWHERE IN MINNESOTA...


CITY           SKY/WX    TMP DP  RH WIND       PRES   REMARKS
MINNEAPOLIS    CLOUDY    49  36  61 NE7       30.12F
INTNL FALLS    PTCLDY    33  29  85 CALM      30.26R
DULUTH         CLEAR     36  28  73 E7        30.21R WCI  30
RED WING       CLOUDY    43  37  81 CALM      30.11F
REDWOOD FALLS  PTCLDY    41  37  86 N6        30.10R
MANKATO        CLOUDY    46  37  71 NE7       30.08F
WORTHINGTON    CLOUDY    40  38  93 NE10      30.04F WCI  33
FAIRMONT       CLOUDY    43  30  61 E7        30.05F
$$

...SOUTHWEST WISCONSIN...


CITY           SKY/WX    TMP DP  RH WIND       PRES   REMARKS
LA CROSSE      CLOUDY    40  38  93 CALM      30.12R
PRAIRIE DU CHI CLOUDY    40  37  89 CALM      30.08F
BOSCOBEL       MOCLDY    41  39  93 CALM      30.10F
LONE ROCK      CLOUDY    41  36  82 E8        30.10F
PLATTEVILLE    PTCLDY    41  39  93 E7        30.07F
FORT MC COY    CLOUDY    34  34 100 CALM      30.13S
MAUSTON-NEW LI MOSUNNY   37  35  96 CALM      30.12R
VIROQUA        FAIR      41  36  84 E6        30.10S
WIS DELLS      CLOUDY    42  36  79 SE3       30.13S
$$

...ELSEWHERE IN WISCONSIN...


CITY           SKY/WX    TMP DP  RH WIND       PRES   REMARKS
MILWAUKEE      CLOUDY    42  32  67 NE5       30.13S
MADISON        CLOUDY    42  37  82 NE5       30.13R
GREEN BAY      CLEAR     38  34  85 NW3       30.16R
EAU CLAIRE     CLOUDY    43  33  68 NE6       30.13R
BLACK RVR FLS  FOG       34  34 100 CALM      30.12S VSB 1/2
MEDFORD        CLEAR     37  34  90 E6        30.15R WCI  32
WAUSAU         PTCLDY    39  34  82 E5        30.15R
WIS RAPIDS     CLOUDY    41  31  67 E6        30.15R
MARSHFIELD     CLOUDY    42  33  70 E6        30.13R
RICE LAKE      CLEAR     40  31  69 N3        30.17R
$$

...NORTHEAST IOWA...


CITY           SKY/WX    TMP DP  RH WIND       PRES   REMARKS
WATERLOO       CLOUDY    44  40  85 NE9       30.03F
DUBUQUE        CLOUDY    43  40  89 NE8       30.04F
DECORAH        CLOUDY    43  39  87 NE6       30.06F
MASON CITY     PTCLDY    43  40  89 E9        30.05F
CHARLES CITY   MOCLDY    43  43 100 E7        30.06F
OELWEIN        CLOUDY    43  43 100 NE8       30.05F
$$

...ELSEWHERE IN IOWA...


CITY           SKY/WX    TMP DP  RH WIND       PRES   REMARKS
DES MOINES     CLOUDY    47  41  80 E15G26    29.92F
IOWA CITY      CLOUDY    47  41  80 NE6       30.02F
FORT DODGE     CLOUDY    45  37  76 NE12      30.00F
MARSHALLTOWN   CLOUDY    45  40  82 E17       29.99F
CEDAR RAPIDS   CLOUDY    45  42  89 NE12      30.01S
$$

...NORTHERN ILLINOIS...


CITY           SKY/WX    TMP DP  RH WIND       PRES   REMARKS
CHICAGO-OHARE  CLOUDY    44  38  79 NE8       30.07F
CHICAGO-MIDWAY CLOUDY    45  38  76 NE10      30.06F
MOLINE         CLOUDY    48  40  73 E16       30.01F
ROCKFORD       CLOUDY    45  39  79 NE8       30.10F
PEORIA         CLOUDY    47  41  80 E15       30.00S
$$

NOTE: "FAIR" INDICATES FEW OR NO CLOUDS BELOW 12,000 FEET WITH NO
SIGNIFICANT WEATHER AND/OR OBSTRUCTIONS TO VISIBILITY. WIND
SPEEDS ARE IN MILES-PER-HOUR.




USA.gov is the U.S. government's official web portal to all federal, state and local government web resources and services.